www.pogodaiklimat.ru

Погода и климат >> Архив погоды >> Украина >> Межгорье


ПОГОДА в Межгорье

  • Прогноз погоды в Межгорье
  • Монитор погоды в Межгорье

АРХИВ ПОГОДЫ в Межгорье

Время (UTC), дата Ветер
(напр.,м/с)
 
Видим.   Явления Облачность Т
(С)
Тd
(С)
f
(%)
Тe
(С)
Тes
(С)
Комфортность P
(гПа)
Po
(гПа)
Тmin
(С)
Tmax
(С)
R
(мм)
R24
(мм)
S
(см)
15 18.08 Ю 2 20 км 8/0
[Ac trans]
+22.0 +15.9 68 +26 +27 душно 1015.6 1001.6
18 18.08 штиль 0 20 км 3/0
[Ac trans]
+19.8 +16.1 79 +22 +22 комфорт 1016.5 1002.4 +22.8
00 19.08 штиль 0 20 км ясно +13.8 +13.2 96 +13 +13 1018.6 1004.1
03 19.08 С 1 20 км ясно +12.1 +11.5 96 +12 +12 1019.6 1005.0
06 19.08 штиль 0 500 м туман ?/? +12.7 +12.3 97 +12 +12 1019.9 1005.4 +11.5
09 19.08 Ю 2 20 км {туман} ясно +24.6 +16.1 59 +28 +40 душно 1017.3 1003.4
12 19.08 Ю 2 20 км {туман} 3/0
[Ci fib]
+27.0 +17.7 57 +31 +41 душно 1017.2 1003.4
15 19.08 ЮЗ 2 20 км ясно +28.6 +18.9 56 +34 +37 очень
душно
1016.9 1003.2
18 19.08 штиль 0 20 км ясно +22.6 +18.5 78 +28 +28 душно 1017.9 1003.9 +28.8
21 19.08 штиль 0 20 км ясно +17.6 +16.3 92 +18 +18 1020.1 1005.8
00 20.08 штиль 0 20 км ясно +15.0 +14.5 97 +15 +15 1020.9 1006.5
03 20.08 штиль 0 200 м туман ?/? +14.0 +14.0 100 +13 +13 1021.4 1006.9
06 20.08 штиль 0 500 м туман ?/? +15.0 +14.7 98 +15 +15 1022.2 1007.8 +13.8
09 20.08 Ю 1 20 км {туман} 4/0
[Ci fib]
+25.0 +19.6 72 +30 +43 душно 1019.6 1005.7
12 20.08 Ю 2 20 км {туман} 6/3 1000 м
[Cu med, cong Ci fib]
+30.8 +20.3 54 +38 +45 очень
душно
1017.8 1004.2
15 20.08 СВ 4 20 км 9/9 600 м
[Cb calv]
+24.8 +18.7 69 +30 +30 душно 1019.2 1005.3
18 20.08 С 1 20 км 4/0
[Ci fib]
+22.8 +18.7 78 +29 +29 очень
душно
1019.5 1005.5 +30.8
21 20.08 штиль 0 20 км ясно +17.6 +16.3 92 +18 +18 1021.0 1006.7
00 21.08 штиль 0 20 км ясно +15.5 +15.0 97 +15 +15 1021.4 1007.0
03 21.08 штиль 0 200 м туман ?/? +14.3 +14.1 99 +14 +14 1021.7 1007.2
06 21.08 штиль 0 500 м туман ?/? +15.7 +15.3 97 +15 +15 1022.0 1007.6 +13.8
09 21.08 штиль 0 20 км {туман} ясно +26.4 +20.3 69 +33 +49 очень
душно
1020.2 1006.3
12 21.08 С 2 20 км {туман} 4/4
[Cu hum]
+31.2 +19.5 50 +37 +44 очень
душно
1018.3 1004.7
15 21.08 В 4 10 км гроза, ливневой дождь 10/10 600 м
[Cb cap]
+20.4 +19.1 92 +24 +24 комфорт 1019.3 1005.2
18 21.08 В 2 20 км гроза, ливневой дождь 10/10 600 м
[Cb cap]
+19.2 +19.0 99 +22 +22 комфорт 1022.5 1008.3 +32.0 33
21 21.08 штиль 0 20 км {гроза, ливн. осадки} 9/9 600 м
[Cb calv]
+18.1 +17.7 98 +18 +18 1023.6 1009.3
00 22.08 В 2 20 км {гроза, ливн. осадки} 9/0
[Ac trans]
+16.9 +15.7 93 +17 +17 1024.9 1010.5
03 22.08 С 2 20 км 8/0
[Ac trans]
+15.5 +14.8 96 +15 +15 1025.5 1011.0
06 22.08 СЗ 2 20 км 9/9 600 м
[Cb calv]
+16.6 +15.2 91 +17 +17 1026.1 1011.7 +14.7 0.0
09 22.08 С 2 20 км 8/0
[Ac trans Ci fib]
+20.0 +16.4 80 +23 +29 комфорт 1025.4 1011.2
12 22.08 С 2 20 км 6/0
[Ac trans]
+24.0 +18.5 71 +28 +36 душно 1022.6 1008.6
15 22.08 С 2 20 км 3/0
[Ac trans]
+25.3 +18.9 68 +30 +32 душно 1022.3 1008.3
18 22.08 штиль 0 20 км ясно +20.4 +16.4 78 +23 +23 комфорт 1023.5 1009.3 +25.4
21 22.08 штиль 0 20 км ясно +16.0 +15.3 96 +16 +16 1025.2 1010.8
00 23.08 штиль 0 20 км ясно +15.2 +14.7 97 +15 +15 1025.6 1011.1
06 23.08 штиль 0 500 м туман ?/? +15.2 +14.7 97 +15 +15 1025.6 1011.1 +13.0
12 23.08 20 км {туман} н/о +28.2 +19.6 60 +34 +36 очень
душно
1023.1 1009.3
18 23.08 штиль 0 20 км 6/0
[Ac trans]
+21.6 +18.1 80 +26 +26 душно 1023.8 1009.7 +28.6
00 24.08 С 1 20 км 4/0
[Ac trans]
+15.2 +14.7 97 +16 +16 1025.3 1010.8
06 24.08 штиль 0 20 км в посл. час туман 4/0
[Ac trans]
+15.0 +14.5 97 +15 +18 1025.5 1011.0 +13.8
12 24.08 З 1 20 км 6/6 1000 м
[Cu hum Ci fib]
+28.8 +20.5 61 +36 +41 очень
душно
1020.4 1006.6
18 24.08 штиль 0 20 км {гроза} 4/0
[Ac trans]
+22.2 +19.2 83 +28 +28 душно 1021.6 1007.5 +29.6
06 25.08 штиль 0 500 м туман ?/? +15.5 +15.1 97 +15 +15 1023.5 1009.1 +14.7
12 25.08 ЮЗ 2 20 км {туман} 8/8 600 м
[Cb calv]
+29.3 +21.2 62 +37 +39 очень
душно
1019.8 1006.1

 

Местоположение метеостанции Межгорье (Закарпатская область, Украина): широта 49.71 долгота 24.59 высота над уровнем моря 120 м.

В архиве по умолчанию представлена погода в Межгорье за последнюю неделю. Архивные данные за месяц целиком и за предыдущие месяцы, начиная с января 2011 года, Вы можете получить, выбрав интересующий диапазон дат из раскрывающегося списка и нажав кнопку "Ввод!".


*Определитесь, кто Вы:
робот инопланетянин человек

Внимание! Время в таблицах - всемирное. Для получения местного времени необходимо прибавить поправку, которая равна 2 ч.

Смотрите также архив погоды в соседних городах и на ближайших метеорологических станциях:

Погода в Бережанах (Львовская область, Украина) (41 км)
Погода в Каменке-Бугской (Львовская область, Украина) (47 км)
Погода в Львове (Львовская область, Украина) (48 км)
Погода в Бродах (Львовская область, Украина) (59 км)
Погода в Стрые (Львовская область, Украина) (77 км)
Погода в Тернополе (Тернопольская область, Украина) (80 км)
Погода в Ивано-Франковске (Ивано-Франковская область, Украина) (83 км)
Погода в Дрогобыче (Львовская область, Украина) (87 км)
Погода в Славском (Львовская область, Украина) (90 км)
Погода в Яворове (Львовская область, Украина) (90 км)

Пояснения к столбцам:

Ветер - указаны скорость ветра в м/с - средняя за 10 мин, порывы в срок и между сроками (в фигурных скобках) и направление, откуда дует ветер: С - северный, СВ - северо-восточный, В - восточный, ЮВ - юго-восточный, Ю - южный, ЮЗ - юго-западный, З - западный, СЗ - северо-западный.
Видимость - горизонтальная дальность видимости в метрах или километрах. При видимости от 1 до 10 км при отсутствии осадков обычно наблюдается дымка, при ухудшении видимости до 1 км и менее - туман. В сухую погоду видимость может ухудшаться дымом, пылью или мглою.
Явления - указаны атмосферные явления, наблюдавшиеся в срок или в последний час перед сроком; фигурными скобками обозначены явления, наблюдавшиеся между сроками (за 1-3 часа до срока); квадратными скобками обозначены град или гололедные отложения с указанием их диаметра в мм.
Облачность - указаны через наклонную черту общая и нижняя облачность в баллах и высота нижней границы облаков в метрах; квадратными скобками обозначены формы облаков: Ci - перистые, Cs - перисто-слоистые, Cc - перисто-кучевые, Ac - высококучевые, As - высокослоистые, Sc - слоисто-кучевые, Ns - слоисто-дождевые, Cu - кучевые, Cb - кучево-дождевые. Подробнее классификацию облаков см. в Атласе облаков (PDF).
T - Температура воздуха - температура, измеренная на высоте 2 м над землей.
Td - Температура точки росы - температура, при понижении до которой содержащийся в воздухе водяной пар достигнет насыщения.
f - Относительная влажность воздуха - влажноcть воздуха, измеренная на высоте 2 м над землей.
Te - Эффективная температура - температура, которую ощущает одетый по сезону человек в тени. Характеристика душности погоды. При расчете учитывается влияние влажности воздуха и скорости ветра на теплоощущения человека.
Tes - Эффективная температура на солнце - температура, которую ощущает человек, с поправкой на солнечный нагрев. Характеристика знойности погоды. Зависит от высоты солнца над горизонтом, облачности и скорости ветра. Ночью, в пасмурную погоду, а также при ветре 12 м/с и более поправка равна нулю.
P - Атмосферное давление - приведенное к уровню моря атмосферное давление.
Po - Атмосферное давление - измеренное на уровне метеостанции атмосферное давление.
Tmin - Минимальная температура - минимум температуры воздуха на высоте 2 м над землей.
Tmax - Максимальная температура - максимум температуры воздуха на высоте 2 м над землей.
R - Количество осадков - Количество выпавших осадков за период времени, мм. При наведении курсора мыши на число - период времени, за который выпало указанное количество осадков.
R24 - Количество осадков - Количество выпавших осадков за 24 часа, мм.
S - Снежный покров - Высота снежного покрова, см. При наведении курсора мыши на число - состояние снежного покрова и степень покрытия местности в баллах.